Regional Weather Roundup
Issued by NWS

Home | Current Version | Previous Version | Graphics & Text | Print | Product List | Glossary On
Versions: 1 2 3 4 5 6 7 8 9 10 11 12 13 14 15 16 17 18 19 20 21 22 23 24 25 26 27 28 29 30 31 32 33 34 35 36 37 38 39 40 41 42 43 44 45 46 47 48 49 50
000
ASUS43 KLSX 220159
RWRMO

WEATHER SUMMARY FOR MISSOURI
NATIONAL WEATHER SERVICE SPRINGFIELD MO
900 PM CDT TUE OCT 21 2014

NOTE: "FAIR" INDICATES FEW OR NO CLOUDS BELOW 12,000 FEET WITH NO
       SIGNIFICANT WEATHER AND/OR OBSTRUCTIONS TO VISIBILITY.
       CURRENT SKY AND/OR WEATHER CONDITIONS ARE NOT AVAILABLE FOR
       CHILLICOTHE AND FARMINGTON.

MOZ001>031-035>038-043-044-053-054-220300-
...NORTHERN AND WESTERN MISSOURI...

CITY           SKY/WX    TMP DP  RH WIND       PRES   REMARKS
KANSAS CTY INT CLEAR     61  43  51 E10       30.10R
KANSAS C DTWN  CLEAR     62  44  51 SE6       30.09R
LEE`S SUMMIT   CLEAR     61  43  51 SE6       30.11R
ST JOSEPH      CLEAR     59  42  53 SE6       30.09R
CHILLICOTHE      N/A     59  45  59 E5        30.14R
KIRKSVILLE     CLEAR     51  43  74 E5        30.17R

$$
MOZ066>068-077>081-088>096-101>105-220300-
...SOUTHWEST MISSOURI...

CITY           SKY/WX    TMP DP  RH WIND       PRES   REMARKS
SPRINGFIELD    CLEAR     54  45  71 CALM      30.11R
JOPLIN         CLEAR     58  50  75 E3        30.10R

$$
MOZ032>034-039>042-045>050-055>058-069>072-220300-
...CENTRAL MISSOURI...

CITY           SKY/WX    TMP DP  RH WIND       PRES   REMARKS
COLUMBIA       CLEAR     54  45  71 E7        30.14R
JEFFERSON CITY CLEAR     59  44  57 E6        30.14R
ROLLA          CLEAR     55  44  66 E7        30.13R
SEDALIA        CLEAR     59  45  59 E6        30.13R
WHITEMAN AFB   CLEAR     60  44  57 SE5       30.11R
OSAGE BEACH    CLEAR     55  45  67 NE5       30.12R

$$
MOZ051-052-059>065-220300-
...EAST CENTRAL MISSOURI...

CITY           SKY/WX    TMP DP  RH WIND       PRES   REMARKS
ST LOUIS INTL  CLEAR     55  41  59 E6        30.18R
SPIRIT OF STL  CLEAR     50  45  83 E3        30.16R
ST CHARLES     CLEAR     53  41  63 NE8       30.17R

$$
MOZ072>076-082>087-097>100-106>115-220300-
...SOUTH CENTRAL AND SOUTHEAST MISSOURI...

CITY           SKY/WX    TMP DP  RH WIND       PRES   REMARKS
CAPE GIRARDEAU CLEAR     54  45  71 NE6       30.14R
FARMINGTON     CLEAR     54  45  71 N6        30.17R
POPLAR BLUFF   CLEAR     55  46  71 NE5       30.11R
WEST PLAINS    CLEAR     51  46  83 CALM      30.13R

$$



USA.gov is the U.S. government's official web portal to all federal, state and local government web resources and services.